McAlester, OK

12:21 AM CST on December 06, 2019 (GMT -0600)
McAlester Regional

Weather History for KMLC - September, 2019

Change the Weather History Date:

Sunday, September 8, 2019

  Actual Average Record
Temperature  
Mean Temperature 84 °F -  
Max Temperature 97 °F 88 °F 99 °F (2016)
Min Temperature 73 °F 66 °F 48 °F (2011)
Cooling Degree Days 20    
Growing Degree Days 34 (Base 50)    
Moisture  
Dew Point 64 °F    
Average Humidity 56    
Maximum Humidity 82    
Minimum Humidity 31    
Precipitation  
Precipitation 0.00 in - - ()
Sea Level Pressure  
Sea Level Pressure 29.93 in    
Wind  
Wind Speed 5 mph (SSW)    
Max Wind Speed 15 mph    
Max Gust Speed 22 mph    
Visibility 10 miles    
Events      
Averages and records for this station are not official NWS values.
T = Trace of Precipitation, MM = Missing Value Source: NWS Daily Summary

Daily Weather History Graph

Daily Weather History Graph

Search for Another Location

Airport or City:

Astronomy

Sep. 08, 2019 Rise Set
Actual Time 7:00 AM CDT 7:40 PM CDT
Civil Twilight 6:35 AM CDT 8:05 PM CDT
Nautical Twilight 6:05 AM CDT 8:35 PM CDT
Astronomical Twilight 5:34 AM CDT 9:06 PM CDT
Moon 4:38 PM CDT (9/8) 1:52 AM CDT (9/8)
Length of Visible Light 13h 30m
Length of Day
12h 39m
Waxing Gibbous, 75% of the Moon is Illuminated
Sep 8
Waxing Gibbous
Sep 13
Full
Sep 21
Last Quarter
Sep 28
New
Oct 5
First Quarter

Hourly Weather History & Observations

Time (CDT) Temp. Heat Index Dew Point Humidity Pressure Visibility Wind Dir Wind Speed Gust Speed Precip Events Conditions
12:53 AM 75.0 °F - 68.0 °F 79% 29.93 in 10.0 mi Calm Calm - N/A   Clear
1:53 AM 73.9 °F - 68.0 °F 82% 29.93 in 10.0 mi South 3.5 mph - N/A   Partly Cloudy
2:53 AM 75.9 °F - 66.0 °F 71% 29.91 in 10.0 mi SSW 4.6 mph - N/A   Clear
3:53 AM 75.9 °F - 64.9 °F 69% 29.91 in 10.0 mi SSW 3.5 mph - N/A   Mostly Cloudy
4:53 AM 75.0 °F - 64.9 °F 71% 29.91 in 10.0 mi SSW 3.5 mph - N/A   Scattered Clouds
5:53 AM 73.0 °F - 64.9 °F 76% 29.91 in 10.0 mi South 3.5 mph - N/A   Clear
6:53 AM 73.0 °F - 64.9 °F 76% 29.93 in 10.0 mi SSW 4.6 mph - N/A   Clear
7:53 AM 73.0 °F - 66.0 °F 79% 29.95 in 10.0 mi SSW 3.5 mph - N/A   Scattered Clouds
8:53 AM 79.0 °F - 66.9 °F 66% 29.96 in 10.0 mi SSW 6.9 mph - N/A   Clear
9:53 AM 82.9 °F 85.4 °F 66.9 °F 58% 29.97 in 10.0 mi SW 10.4 mph - N/A   Scattered Clouds
10:53 AM 88.0 °F 90.7 °F 66.9 °F 49% 29.97 in 10.0 mi SSW 10.4 mph - N/A   Clear
11:53 AM 91.9 °F 94.1 °F 64.9 °F 41% 29.97 in 10.0 mi SW 13.8 mph - N/A   Clear
12:53 PM 93.0 °F 95.9 °F 66.0 °F 41% 29.96 in 10.0 mi SSW 15.0 mph 21.9 mph N/A   Clear
1:53 PM 95.0 °F 97.4 °F 64.9 °F 37% 29.95 in 10.0 mi SSW 12.7 mph - N/A   Clear
2:53 PM 95.0 °F 97.4 °F 64.9 °F 37% 29.92 in 10.0 mi SW 11.5 mph - N/A   Clear
3:53 PM 96.1 °F 96.4 °F 61.0 °F 31% 29.90 in 10.0 mi SW 9.2 mph - N/A   Clear
4:53 PM 96.1 °F 96.4 °F 61.0 °F 31% 29.88 in 10.0 mi SW 11.5 mph - N/A   Clear
5:53 PM 93.9 °F 96.1 °F 64.9 °F 38% 29.88 in 10.0 mi Variable 4.6 mph - N/A   Clear
6:53 PM 86.0 °F 87.6 °F 64.9 °F 49% 29.88 in 10.0 mi South 3.5 mph - N/A   Clear
7:53 PM 84.9 °F 84.8 °F 60.1 °F 43% 29.89 in 10.0 mi SSE 4.6 mph - N/A   Clear
8:53 PM 84.9 °F 84.4 °F 59.0 °F 41% 29.91 in 10.0 mi SE 5.8 mph - N/A   Clear
9:53 PM 80.1 °F 81.1 °F 61.0 °F 52% 29.93 in 10.0 mi SSE 3.5 mph - N/A   Clear
10:53 PM 75.0 °F - 62.1 °F 64% 29.94 in 10.0 mi Calm Calm - N/A   Clear
11:53 PM 81.0 °F 82.2 °F 63.0 °F 54% 29.93 in 10.0 mi SSE 5.8 mph - N/A   Mostly Cloudy